User: anonymous   Login
Location: Unspecified
(0.0000°N, 0.0000°E)
Time: 07:36:14
(UTC+00:00)
Language:

RS-15 - Orbit

View from above orbital plane
View from above orbital plane
View from above satellite
View from above satellite

Ground track
Ground track

The orbit data is extracted from the following two-line orbital elements,

1 23439U 94085A   18115.90475521 -.00000039 +00000-0 +97419-4 0  9993
2 23439 064.8174 073.3854 0158882 191.5793 200.4596 11.27567007960670
Epoch (UTC): 25 April 2018 21:42:50
Eccentricity: 0.0158882
inclination: 64.8174°
perigee height: 1889 km
apogee height: 2156 km
right ascension of ascending node: 73.3854°
argument of perigee: 191.5793°
revolutions per day: 11.27567007
mean anomaly at epoch: 200.4596°
orbit number at epoch: 96067

The dashed part of the orbit path shows where the satellite is in the earth's shadow,  

DLR